St. Cloud, MN

12:52 PM CDT on March 29, 2017 (GMT -0500)
Saint Cloud Regional

Weather History for KSTC - February, 2013

Change the Weather History Date:

Thursday, February 21, 2013

  Actual Average Record
Temperature  
Mean Temperature 7 °F 19 °F  
Max Temperature 21 °F 29 °F 56 °F (2017)
Min Temperature -8 °F 10 °F -25 °F (1939)
Degree Days  
Heating Degree Days 58 46  
Month to date heating degree days 1102 1034  
Since 1 July heating degree days 5972 6136  
Cooling Degree Days 0 0  
Month to date cooling degree days 0 0  
Year to date cooling degree days 0 0  
Moisture  
Dew Point 3 °F    
Average Humidity 69    
Maximum Humidity 87    
Minimum Humidity 51    
Precipitation  
Precipitation 0.00 in 0.02 in 0.54 in (1957)
Month to date precipitation 1.21 0.39  
Year to date precipitation 1.66 1.04  
Snow  
Snow 0.00 in 0.30 in 5.90 in (1957)
Month to date snowfall 15.3 5.0  
Since 1 July snowfall 36.0 32.2  
Snow Depth 13.00 in    
Sea Level Pressure  
Sea Level Pressure 30.39 in    
Wind  
Wind Speed 7 mph (ENE)    
Max Wind Speed 14 mph    
Max Gust Speed 18 mph    
Visibility 10 miles    
Events      
T = Trace of Precipitation, MM = Missing Value Source: NWS Daily Summary

Daily Weather History Graph

Daily Weather History Graph

Search for Another Location

Airport or City:

Trip Planner

Search our weather history database for the weather conditions in past years. The results will help you decide how hot, cold, wet, or windy it might be!

Date:

Astronomy

Feb. 21, 2013 Rise Set
Actual Time 7:07 AM CST 5:52 PM CST
Civil Twilight 6:37 AM CST 6:22 PM CST
Nautical Twilight 6:03 AM CST 6:56 PM CST
Astronomical Twilight 5:29 AM CST 7:31 PM CST
Moon 2:00 PM CST (2/21) 4:21 AM CST (2/21)
Length of Visible Light 11h 44m
Length of Day
10h 44m
Waxing Gibbous, 84% of the Moon is Illuminated
Feb 21
Waxing Gibbous
Feb 25
Full
Mar 4
Last Quarter
Mar 11
New
Mar 19
First Quarter

Hourly Weather History & Observations

Time (CST) Temp. Windchill Dew Point Humidity Pressure Visibility Wind Dir Wind Speed Gust Speed Precip Events Conditions
12:53 AM -7.1 °F - -11.9 °F 79% 30.51 in 10.0 mi Calm Calm - N/A   Clear
1:53 AM -4.0 °F -16.3 °F -8.0 °F 83% 30.51 in 10.0 mi ENE 5.8 mph - N/A   Clear
2:53 AM 5.0 °F -5.6 °F -2.9 °F 70% 30.50 in 10.0 mi East 5.8 mph - N/A   Clear
3:53 AM 5.0 °F -6.9 °F -2.0 °F 73% 30.51 in 10.0 mi East 6.9 mph - N/A   Clear
4:53 AM 3.9 °F -8.2 °F -2.0 °F 76% 30.49 in 10.0 mi East 6.9 mph - N/A   Clear
5:53 AM 3.9 °F -8.2 °F -2.0 °F 76% 30.45 in 10.0 mi ENE 6.9 mph - N/A   Clear
6:53 AM 3.9 °F -5.3 °F -2.0 °F 76% 30.45 in 10.0 mi East 4.6 mph - N/A   Clear
7:53 AM 1.0 °F -6.7 °F -4.0 °F 79% 30.54 in 10.0 mi NE 3.5 mph - N/A   Clear
8:53 AM 6.1 °F -4.3 °F -0.9 °F 73% 30.50 in 10.0 mi ENE 5.8 mph - N/A   Clear
9:53 AM 9.0 °F -3.2 °F -0.0 °F 67% 30.47 in 10.0 mi ENE 8.1 mph - N/A   Clear
10:53 AM 12.0 °F -0.4 °F 1.0 °F 61% 30.47 in 10.0 mi East 9.2 mph - N/A   Clear
11:53 AM 15.1 °F 3.3 °F 1.9 °F 56% 30.46 in 10.0 mi East 9.2 mph - N/A   Clear
12:53 PM 17.1 °F 6.6 °F 3.0 °F 54% 30.43 in 10.0 mi NE 8.1 mph - N/A   Clear
1:53 PM 17.1 °F 5.8 °F 3.9 °F 56% 30.40 in 10.0 mi ENE 9.2 mph - N/A   Clear
2:53 PM 18.0 °F 6.9 °F 5.0 °F 57% 30.36 in 10.0 mi NE 9.2 mph - N/A   Clear
3:53 PM 18.0 °F 4.8 °F 3.9 °F 54% 30.34 in 10.0 mi ENE 12.7 mph 17.3 mph N/A   Clear
4:53 PM 19.0 °F 10.0 °F 5.0 °F 54% 30.32 in 10.0 mi ENE 6.9 mph - N/A   Clear
5:53 PM 19.0 °F 10.0 °F 6.1 °F 57% 30.30 in 10.0 mi NE 6.9 mph - N/A   Clear
6:53 PM 19.9 °F 13.4 °F 8.1 °F 60% 30.29 in 10.0 mi ENE 4.6 mph - N/A   Clear
7:53 PM 19.9 °F 13.4 °F 9.0 °F 62% 30.27 in 10.0 mi NNE 4.6 mph - N/A   Clear
8:53 PM 21.0 °F 12.4 °F 12.9 °F 71% 30.25 in 10.0 mi NE 6.9 mph - N/A   Clear
9:53 PM 21.0 °F 9.9 °F 14.0 °F 74% 30.24 in 10.0 mi NE 10.4 mph 17.3 mph N/A   Mostly Cloudy
10:53 PM 19.9 °F 9.3 °F 14.0 °F 78% 30.21 in 10.0 mi NE 9.2 mph - N/A   Partly Cloudy
11:53 PM 19.9 °F 8.6 °F 14.0 °F 78% 30.18 in 10.0 mi NE 10.4 mph - N/A   Clear